Home > Weather > Newark > Past weeks

Flag for USA Weather for the Past 2 Weeks in Newark, New Jersey, USA

Now
48 °F

Overcast.


Feels Like: 45 °F
Forecast: 44 / 62 °F
Wind: 6 mph from North

Location: Newark International Airport

Current Time: Apr 30, 2016 at 2:09:03 AM

Latest Report: Apr 30, 2016 at 12:51 AM


Visibility: 10 mi

Pressure: 30.16 "Hg

Humidity: 77%

Dew Point: 41 °F

Location of NewarkLocation

Historic Weather in Newark — Graph

°F

Newark Temperature Yesterday

Maximum temperature yesterday: 57 °F (at 12:51 PM)
Minimum temperature yesterday: 48 °F (at 10:51 PM)
Average temperature yesterday: 52 °F

High & Low Weather Summary for the Past Weeks

 TemperatureHumidityPressure
High82 °F (Apr 22, 2:51 PM)100% (Apr 23, 4:51 AM)30.48 "Hg (Apr 23, 4:51 AM)
Low41 °F (Apr 15, 5:51 AM)10% (Apr 20, 3:51 PM)29.62 "Hg (Apr 26, 2:51 PM)
Average59 °F49%30.07 "Hg
* Reported Apr 14 11:51 PM — Apr 29 11:51 PM, Newark, Weather by CustomWeather, © 2016

Note: Actual official high and low records may vary slightly from our data, if they occured in-between our weather recording intervals... More about our weather records

Advertising

Newark Weather History for the Previous 24 Hours

Scroll right to see more
 ConditionsComfort  
Time TempWeatherWind HumidityBarometerVisibility
11:51 PM
Fri, Apr 29
48 °FMostly cloudy.6 mph74%30.14 "Hg10 mi
10:51 PM48 °FLight rain. Mostly cloudy.5 mph71%30.15 "Hg10 mi
9:51 PM49 °FLight rain. Overcast.5 mph64%30.15 "Hg9 mi
8:51 PM50 °FOvercast.7 mph57%30.12 "Hg10 mi
7:51 PM50 °FMostly cloudy.9 mph59%30.09 "Hg10 mi
6:51 PM52 °FLight rain. Mostly cloudy.6 mph45%30.09 "Hg10 mi
5:51 PM53 °FMostly cloudy.7 mph41%30.07 "Hg10 mi
4:51 PM54 °FMostly cloudy.10 mph33%30.08 "Hg10 mi
3:51 PM54 °FMostly cloudy.9 mph35%30.08 "Hg10 mi
2:51 PM55 °FPartly sunny.13 mph40%30.08 "Hg10 mi
1:51 PM55 °FOvercast.13 mph37%30.08 "Hg10 mi
12:51 PM57 °FMostly cloudy.14 mph29%30.09 "Hg10 mi
11:51 AM56 °FOvercast.9 mph33%30.11 "Hg10 mi
10:51 AM55 °FPartly sunny.13 mph39%30.11 "Hg10 mi
9:51 AM53 °FPartly sunny.10 mph43%30.10 "Hg10 mi
8:51 AM52 °FOvercast.7 mph47%30.10 "Hg10 mi
7:51 AM52 °FOvercast.7 mph41%30.10 "Hg10 mi
6:51 AM51 °FOvercast.7 mph46%30.08 "Hg10 mi
5:51 AM51 °FOvercast.7 mph56%30.06 "Hg10 mi
4:51 AM50 °FOvercast.5 mph63%30.05 "Hg10 mi
3:51 AM50 °FOvercast.7 mph63%30.05 "Hg10 mi
2:51 AM49 °FOvercast.5 mph66%30.03 "Hg10 mi
Weather by CustomWeather, © 2016

See weather overviewHow to use our weather pages